User: anonymous   Login
Location: Santa Giusta
(39.8800°N, 8.6069°E)
Time: 05:48:55
(UTC+00:00)
Language:

CSL-04 Debris - Orbit

View from above orbital plane
View from above orbital plane
View from above satellite
View from above satellite

Ground track
Ground track

The orbit data is extracted from the following two-line orbital elements,

1 25733U 99025D   23159.54239927  .00000524  00000-0  28188-3 0  9997
2 25733  98.8207 202.4697 0016100 107.3255 252.9682 14.17050849243537
Epoch (UTC): 08 June 2023 13:01:03
Eccentricity: 0.0016100
inclination: 98.8207°
perigee height: 824 km
apogee height: 847 km
right ascension of ascending node: 202.4697°
argument of perigee: 107.3255°
revolutions per day: 14.17050849
mean anomaly at epoch: 252.9682°
orbit number at epoch: 24353

The dashed part of the orbit path shows where the satellite is in the earth's shadow,  

DLR